Tracking 23645 objects as of 22-Sep-2021
HD Live streaming from Space Station
objects crossing your sky now

STARLINK-1510

Track STARLINK-1510 now!
10-day predictions
STARLINK-1510 is classified as:


NORAD ID: 45784
Int'l Code: 2020-038BG
Perigee: 553.5 km
Apogee: 555.2 km
Inclination: 53.1 °
Period: 95.6 minutes
Semi major axis: 6925 km
RCS: Unknown
Launch date: June 13, 2020
Source: United States (US)
Launch site: AIR FORCE EASTERN TEST RANGE (AFETR)
aabbcc
Your satellite tracking list
Your tracking list is empty




NASA's NSSDC Master Catalog

Two Line Element Set (TLE):
1 45784U 20038BG  21264.53839881  .00000766  00000-0  70332-4 0  9999
2 45784  53.0553 314.6616 0001168  86.6837 273.4285 15.06400419 71056
Source of the keplerian elements: AFSPC